Augusta Regional Airport Airport (AGS)

Airport Diagram
Current Weather/Forecast (VFR Conditions)
METAR KAGS 230253Z 15004KT 10SM FEW065 FEW085 26/23 A3001 RMK AO2 SLP159 60000 T02560228 51013
TAF KAGS 230230Z 2303/2324 15005KT P6SM SCT060 FM230800 VRB03KT P6SM SCT007 BKN012 FM231400 VRB05KT P6SM SCT025 BKN040

All Charts
General
Chart Name Download
AIRPORT DIAGRAM
TAKEOFF MINIMUMS
ALTERNATE MINIMUMS
HOT SPOT

Departures
Chart Name Download
CHATT SIX (RNAV)
DOVER FIVE (RNAV)
JUNPR SIX (RNAV)
KAOLN SIX (RNAV)
RDBUD FOUR (RNAV)
SAMMI FOUR (RNAV)

Arrivals
Chart Name Download
STUGE THREE
STUGE THREE, CONT.1
STWRT THREE

Approaches
Chart Name Download
ILS OR LOC RWY 17
ILS OR LOC RWY 35
RNAV (GPS) RWY 17
RNAV (GPS) RWY 26
RNAV (GPS) RWY 35
RNAV (GPS) Y RWY 08
RNAV (GPS) Z RWY 08


Inbound Traffic (Arrivals)

No inbound traffic.


Outbound Traffic (Departures)

No outbound traffic.